Location: Unspecified
(0.0000°N, 0.0000°E)
Time: 19:47:25
(UTC+00:00)

NIMBUS 2 DEB - Visible Passes

Search period start: 14 January 2025 00:00
Search period end: 24 January 2025 00:00
Orbit: 986 x 1044 km, 100.3° (Epoch: 14 January)

Date Brightness Start Highest point End Pass type
(mag) Time Alt. Az. Time Alt. Az. Time Alt. Az.
14 Jan ? 04:13:19 10° E 04:15:50 13° ESE 04:18:21 10° SE visible
15 Jan ? 04:46:30 10° NE 04:51:56 31° ESE 04:57:26 10° SSE visible
16 Jan ? 05:21:49 10° NNE 05:28:04 72° ESE 05:34:27 10° S visible
16 Jan ? 18:33:31 10° SSW 18:38:13 22° WSW 18:42:52 10° NW visible
17 Jan ? 04:17:36 10° ENE 04:20:44 14° ESE 04:23:53 10° SE visible
18 Jan ? 04:51:13 10° NE 04:56:49 34° ESE 05:02:30 10° SSE visible
19 Jan ? 05:26:38 10° NNE 05:32:57 78° ESE 05:39:22 10° S visible
19 Jan ? 18:38:39 10° SSW 18:43:03 20° WSW 18:47:25 10° WNW visible
20 Jan ? 04:21:58 10° ENE 04:25:34 16° ESE 04:29:12 10° SE visible
21 Jan ? 04:55:53 10° NE 05:01:38 37° ESE 05:07:27 10° S visible
22 Jan ? 05:31:24 10° NNE 05:37:44 85° ESE 05:44:10 10° SSW visible
22 Jan ? 18:43:44 10° SSW 18:47:48 18° WSW 18:51:52 10° WNW visible
23 Jan ? 04:26:19 10° ENE 04:30:20 18° ESE 04:34:22 10° SE visible
